Location: Bretagne
(43.8474°N, 0.4650°W)
Time: 09:44:57
(UTC+00:00)

CARTOSAT-1 - Pass Details

Date: 15 January 2026
Orbit: 594 x 598 km, 97.5° (Epoch: 18 February)

Event Time Altitude Azimuth Distance (km) Brightness Sun altitude
Rises 18:58:07 0° 172° (S) 2,829 7.0 -22.6°
Reaches altitude 10° 19:00:17 10° 174° (S) 1,931 6.1 -23.0°
Maximum altitude 19:04:28 70° 258° (WSW) 638 3.7 -23.8°
Drops below altitude 10° 19:08:41 10° 343° (NNW) 1,946 6.2 -24.5°
Sets 19:10:52 0° 346° (NNW) 2,853 7.1 -24.9°
